Погода в Радужном

Россия / Московская область     55°08′13″N   38°43′31″E
темп.,
°C
ветер,
м/с
пор.,
м/с
влажн.,
%
обл.,
%
осадки,
мм/ч
давл.,
гПа
погр.,
м
16 апреля, пт
пт1600:00+12всв71479100 0.0 1015407
03:00+10всв61386100 0.3 1016416
06:00+10всв51291100 0.4 1018477
09:00+11в51083100 2.8 1019633
12:00+14в6868100 0.9 1019914
15:00+16всв6762100 1.0 10191143
18:00+14всв61169100 0.0 1019807
21:00+12всв71578100 0.0 1019625
17 апреля, сб
сб1700:00+10в5128787 0.1 1020475
03:00+9всв51192100 1.1 1021383
06:00+8всв51191100 0.2 1021410
09:00+10всв6108196 0.3 1021528
12:00+14в7106182 0.0 10201013
15:00+17в7105299 0.1 10201782
18:00+15всв8136099 1.2 10191132
21:00+11в6136999 1.2 1020626
18 апреля, вс
вс1800:00+9юв2689100 1.3 1021395
03:00+7всв4984100 2.9 1021454
06:00+6всв51094100 2.8 1021378
09:00+5всв5889100 8.4 1022315
12:00+5всв5890100 0.5 1023504
15:00+5всв51092100 1.9 1023554
18:00+5всв51092100 1.6 1023952
21:00+5в51093100 1.8 1024658
19 апреля, пн
пн1900:00+5в499198 0.0 1024498
03:00+5всв4894100 0.0 1024417
06:00+6в4993100 0.0 1024550
09:00+6всв4892100 0.0 1025645
12:00+7в6885100 0.0 1025828
15:00+8всв61079100 0.1 10241006
18:00+7в61183100 0.0 1024894
21:00+7в71480100 0.0 1023829
20 апреля, вт
вт2000:00+7в7157399 0.0 1022671
03:00+5в7157893 0.0 1021601
06:00+4в81682100 0.0 1020677
09:00+5в81680100 0.0 1017816
12:00+7в91879100 0.0 10141026
15:00+7в112085100 2.3 10101054
18:00+7вюв112290100 7.9 10081240
21:00+7вюв122389100 9.6 10071283